Погода Нижне-Усинское

Погода Нижне-Усинское : погода сейчас, прогноз погоды и архив. Всё, что Вы хотите узнать о погоде Нижне-Усинское!

Поиск расширенной информации на нашем сайте:

Другие новости

Новости СМИ2

Главная страница сайта

Новости сайта

03.07.2017

Напоминаем, что на нашем специализированном сайте Метеоцентр.Азия вы можете получить высокодетализированные автоматические прогнозы погоды по пунктам России, СНГ и мира в авиационном формате (включающие направление и скорость ветра, видимость, явления погоды, количество и форму облачности, нижнюю и верхнюю границу облачности).


Погода Нижне-Усинское - сегодня

Время (UTC), дата Ветер
(°,м/с) 
Видим.   Явления Облачность Т
(°С)
Тd
(°С)
f(%) Тe
(°С)
Pmin
(гПа)
dP
(гПа)
Po
(мм)
O2
(г/м3)
Тmin Tmax R s Состояние
почвы
03 20.08.17 130 (ЮВ) 20000 м    9/8 1000 м кучево-дожд., средняя, верхняя 
[Cb cap|Ac trans|Ci sp]
+13.6 +12.3 92 +21  1014.6  704  268           
06 20.08.17 300 (СЗ) 20000 м    9/6 1000 м кучево-дожд., средняя, верхняя 
[Cb cap|Ac trans|Ci sp]
+17.1 +7.6 54 +18  1013.4  -0.2  704  265           
09 20.08.17 310 (СЗ) 4{10}  20000 м    9/5 1000 м средняя, верхняя 
[Sc|Ac trans|Ci sp]
+16.5 +7.3 54 +17  1014.7  704  266           
12 20.08.17 320 (СЗ) 20000 м    9/6 1000 м кучево-дожд., средняя, верхняя 
[Cb cap|Ac trans|Ci sp]
+14.9 +7.2 60 +15  1016  0.8  705  268    +17.7       
15 20.08.17 тихо ()   н/о    9/9 1000 м кучево-дожд. 
[Cb cap]
+10.9 +7.8 81 +11  1019.3  2.1  707  272           
18 20.08.17 тихо ()   н/о    8/8 1000 м кучево-дожд. 
[Cb cap]
+7.9 +7 94 +8  1020.8  0.5  707  276           
21 20.08.17 тихо ()   н/о    9/9 1000 м кучево-дожд. 
[Cb cap]
+6.2 +5.8 97 +6  1021.5  0.2  707  278           
00 21.08.17 тихо ()   20000 м    9/9 1000 м кучево-дожд. 
[Cb cap]
+7.1 +6.2 94 +7  1022.4  1.1  708  277  +6         
03 21.08.17 тихо ()   20000 м    8/8 1000 м кучево-дожд. 
[Cb cap]
+12.8 +8.2 74 +13  1020.7  -0.1  708  271           
06 21.08.17 тихо ()   20000 м    9/8 1000 м кучево-дожд., средняя, верхняя 
[Cb cap|Ac trans|Ci sp]
+15.2 +4.1 47 +15  1019.1  -0.9  707  269           
09 21.08.17 230 (ЮЗ) 20000 м    9/6 1000 м кучево-дожд., средняя, верхняя 
[Cb cap|Ac trans|Ci sp]
+16.4 +5.9 50 +16  1017.9  -0.8  707  268           
12 21.08.17 тихо ()   20000 м    8/4 1000 м верхняя 
[Sc|Ci fib]
+14 +8 67 +14  1019  0.4  707  269    +16.8       
15 21.08.17 тихо ()   н/о    3/3 1000 м 
[Sc]
+7.5 +6.9 96 +8  1024.1  709  277           
18 21.08.17 тихо ()   н/о    ясно 
+3.7 +3.5 99 +4  1025.2  709  281           
21 21.08.17 тихо ()   н/о    ясно 
+1.3 +1 98 +1  1026.5  0.5  710  284           
00 22.08.17 тихо ()   20000 м    9/9 1000 м 
[Sc]
+3.7 +3.5 99 +4  1026.5  0.8  710  282  +0.8         
03 22.08.17 тихо ()   20000 м    9/8 1000 м кучево-дожд., средняя, верхняя 
[Cb cap|Ac trans|Ci sp]
+7.1 +5.8 91 +7  1026.9  1.3  711  278           
06 22.08.17 тихо ()   20000 м    6/6 1000 м 
[Sc]
+16.1 +8.5 61 +16  1021.2  -2.8  709  268           
09 22.08.17 210 (ЮЗ) 20000 м    9/6 1000 м кучево-дожд., средняя, верхняя 
[Cb cap|Ac trans|Ci sp]
+17.8 +7.6 51 +18  1019.1  -1.6  708  266           
12 22.08.17 080 (В) 1{10}  20000 м  {ливн. осадки}  8/8 1000 м 
+13.2 +10.1 81 +16  1020.5  0.2  708  270    +18.2  0.7     
15 22.08.17 тихо ()   н/о    3/3 1000 м 
[Sc]
+8.3 +7.9 97 +8  1022.6  0.6  708  276           
18 22.08.17 тихо ()   н/о    4/4 1000 м 
[Sc]
+4 +3.8 99 +4  1024.5  0.5  709  281           
21 22.08.17 тихо ()   н/о    9/5 1000 м средняя, верхняя 
[Sc|Ac trans|Ci sp]
+4.2 +4 99 +4  1024  -0.4  708  280           
00 23.08.17 тихо ()   2000 м    10/10 300 м 
[St]
+5.7 +5.5 99 +6  1023.2  -0.3  708  279  +2.8         
03 23.08.17 тихо ()   10 км  слаб. ливневой дождь  10/10 600 м кучево-дожд. 
[Cb cap]
+7.3 +6.9 97 +7  1023  0.2  708  277           
Время (UTC), дата Ветер
(°,м/с) 
Видим.   Явления Облачность Т
(°С)
Тd
(°С)
f(%) Тe
(°С)
Pmin
(гПа)
dP
(гПа)
Po
(мм)
O2
(г/м3)
Тmin Tmax R s Состояние
почвы

Для получения пояснительной информации подведите курсор к названию столбца.

ПОГОДА Нижне-Усинское - архив

Всё, что Вы хотите узнать о погоде Нижне-Усинское - удобно и подробно!

Выберите нужную дату (начиная с 1 января 2015* года) и нажмите кнопку "Найти".
Будут отображены архивные сводки погоды по пункту Нижне-Усинское, начиная с указанной даты.


Отображать данные в формате CSV (для использования в таблицах Excel)


Внимание! Наш архив погоды предназначен исключительно для личного некоммерческого использования в познавательных целях. Если Вам необходимы официальные справки о состоянии погоды (для производственных, юридических, коммерческих и т.п. целей), обращайтесь в органы Росгидромета.

*Примечание: данная дата относится к архиву по метеостанциям СССР (Россия, СНГ, Балтия).
Архив по метеостанциям Зарубежной Европы и Азии (кроме Китая) хранится 10 дней, по другим регионам земного шара (Китай, Африка, Америка, Австралия, Океания) - 1 день.

Нижне-Усинское - район местоположения метеостанции


Название, широта, долгота, высота метеостанции:
Нижне-Усинское 52.3°ш. 93°д. 660 м над ур. моря [Российская Федерация]

Дополнительная информация

В oтличие oт бoльшинства пoгoдных сайтoв мы публикуем пoдрoбную метеoинфoрмацию в детальнoм прoфессиoнальнoм фoрмате.

Характеристики температуры и влажнoсти вoздуха измеряются на высoте 2 м в тени вдали oт зданий и деревьев.
Скoрoсть ветра измеряется на высoте 10 м (на урoвне рoста челoвека скoрoсть ветра ниже в 1.5-2 раза). Если метеoстанция нахoдится в гoрoде или в лесу, тo скoрoсть ветра занижена на 2-4 м/с пo сравнению с oткрытым местoм. Скoрoсть ветра над акватoриями крупных рек и oзёр, а также на вершинах хoлмoв на 2-5 м/с выше, чем в oбычных услoвиях.
Атмoсфернoе давление в разных тoчках местнoсти мoжет значительнo oтличаться oт давления на метеoстанции, в зависимoсти oт услoвий рельефа (при пoдъёме на 10 м давление пoнижается примернo на 1 мм рт.ст.).